Location: Zagreb
(45.8000°N, 16.0000°E)
Time: 04:07:15
(UTC+01:00)

Envisat - Visible Passes

Search period start: 21 January 2022 00:00
Search period end: 31 January 2022 00:00
Orbit: 764 x 766 km, 98.2° (Epoch: 20 January)

Date Brightness Start Highest point End Pass type
(mag) Time Alt. Az. Time Alt. Az. Time Alt. Az.
21 Jan 5.8 03:29:23 10° ENE 03:31:58 14° E 03:34:31 10° ESE visible
21 Jan 2.8 05:06:29 10° N 05:11:36 80° WNW 05:16:39 10° SSW visible
21 Jan 4.7 06:47:42 10° NNW 06:49:46 12° NW 06:51:50 10° W visible
22 Jan 3.8 04:29:43 10° NNE 04:34:40 49° E 04:39:34 10° S visible
22 Jan 4.0 06:09:21 10° N 06:13:23 24° WNW 06:17:24 10° WSW visible
22 Jan 6.1 17:28:39 10° WSW 17:31:07 14° W 17:33:37 10° WNW visible
23 Jan 5.1 03:53:30 10° NE 03:57:32 23° E 04:01:34 10° SE visible
23 Jan 3.1 05:31:55 10° N 05:36:47 48° WNW 05:41:38 10° SW visible
24 Jan 6.0 03:19:08 10° ENE 03:20:12 11° E 03:21:17 10° E visible
24 Jan 3.0 04:54:53 10° NNE 05:00:00 83° ESE 05:05:05 10° SSW visible
24 Jan 4.5 06:35:28 10° NNW 06:38:21 15° WNW 06:41:14 10° W visible
25 Jan 4.2 04:18:15 10° NNE 04:23:02 39° E 04:27:45 10° SSE visible
25 Jan 3.7 05:57:32 10° N 06:01:54 29° WNW 06:06:14 10° SW visible
25 Jan 5.9 17:16:05 10° SW 17:19:23 17° W 17:22:41 10° NW visible
26 Jan 5.4 03:42:17 10° NE 03:45:50 19° E 03:49:21 10° SE visible
26 Jan 2.9 05:20:14 10° N 05:25:15 60° WNW 05:30:14 10° SSW visible
27 Jan 3.3 04:43:19 10° NNE 04:48:24 66° ESE 04:53:27 10° S visible
27 Jan 4.3 06:23:27 10° NNW 06:26:55 19° WNW 06:30:22 10° WSW visible
28 Jan 4.7 04:06:50 10° NNE 04:11:21 31° E 04:15:49 10° SSE visible
28 Jan 3.5 05:45:46 10° N 05:50:23 36° WNW 05:55:00 10° SW visible
29 Jan 5.7 03:31:16 10° NE 03:34:06 15° E 03:36:55 10° ESE visible
29 Jan 2.8 05:08:35 10° N 05:13:41 75° WNW 05:18:44 10° SSW visible
30 Jan 3.7 04:31:47 10° NNE 04:36:46 52° E 04:41:43 10° S visible
30 Jan 4.1 06:11:31 10° NNW 06:15:26 23° WNW 06:19:20 10° WSW visible
30 Jan 6.2 17:31:06 10° WSW 17:33:15 13° W 17:35:25 10° WNW visible
